Whiteman AFB, MO

8:27 PM CST on December 10, 2019 (GMT -0600)
Whiteman Air Force Base

Weather History for KSZL - October, 2019

Change the Weather History Date:

Thursday, October 17, 2019

  Actual Average Record
Temperature  
Mean Temperature 51 °F -  
Max Temperature 66 °F 65 °F 88 °F (2016)
Min Temperature 36 °F 45 °F 35 °F (2001)
Degree Days  
Heating Degree Days 14    
Growing Degree Days 1 (Base 50)    
Moisture  
Dew Point 43 °F    
Average Humidity 82    
Maximum Humidity 100    
Minimum Humidity 43    
Precipitation  
Precipitation 0.00 in - - ()
Sea Level Pressure  
Sea Level Pressure 29.99 in    
Wind  
Wind Speed 4 mph (SSE)    
Max Wind Speed 10 mph    
Max Gust Speed -    
Visibility 10 miles    
Events      
Averages and records for this station are not official NWS values.
T = Trace of Precipitation, MM = Missing Value Source: NWS Daily Summary

Daily Weather History Graph

Daily Weather History Graph

Search for Another Location

Airport or City:

Astronomy

Oct. 17, 2019 Rise Set
Actual Time 7:25 AM CDT 6:33 PM CDT
Civil Twilight 6:58 AM CDT 7:00 PM CDT
Nautical Twilight 6:27 AM CDT 7:30 PM CDT
Astronomical Twilight 5:56 AM CDT 8:01 PM CDT
Moon 9:07 PM CDT (10/17) 10:55 AM CDT (10/17)
Length of Visible Light 12h 01m
Length of Day
11h 08m
Waning Gibbous, 86% of the Moon is Illuminated
Oct 17
Waning Gibbous
Oct 21
Last Quarter
Oct 27
New
Nov 4
First Quarter
Nov 12
Full

Hourly Weather History & Observations

Time (CDT) Temp. Windchill Dew Point Humidity Pressure Visibility Wind Dir Wind Speed Gust Speed Precip Events Conditions
12:46 AM 37.4 °F - 37.4 °F 100% 30.08 in 2.2 mi Calm Calm - N/A   Clear
12:51 AM 37.4 °F - 37.4 °F 100% 30.08 in 10.0 mi Calm Calm - N/A   Clear
12:56 AM 36.9 °F - 36.9 °F 100% 30.08 in 10.0 mi Calm Calm - N/A   Clear
2:56 AM 36.7 °F - 36.7 °F 100% 30.07 in 10.0 mi Calm Calm - N/A   Clear
3:56 AM 37.4 °F - 37.4 °F 100% 30.05 in 10.0 mi Calm Calm - N/A   Clear
4:56 AM 37.0 °F 34.5 °F 37.0 °F 100% 30.05 in 10.0 mi South 3.5 mph - N/A   Clear
5:56 AM 36.7 °F 32.0 °F 36.7 °F 100% 30.06 in 10.0 mi South 5.8 mph - N/A   Clear
6:56 AM 38.1 °F 32.9 °F 38.1 °F 100% 30.06 in 10.0 mi South 6.9 mph - N/A   Clear
7:56 AM 38.1 °F 33.7 °F 38.1 °F 100% 30.06 in 10.0 mi South 5.8 mph - N/A   Clear
8:56 AM 44.8 °F 40.4 °F 44.8 °F 100% 30.06 in 10.0 mi South 8.1 mph - 0.00 in   Clear
9:56 AM 50.0 °F - 50.0 °F 100% 30.06 in 10.0 mi South 10.4 mph - N/A   Clear
10:56 AM 55.2 °F - 47.1 °F 74% 30.04 in 10.0 mi South 8.1 mph - N/A   Clear
11:56 AM 58.8 °F - 45.3 °F 61% 30.02 in 10.0 mi South 10.4 mph - N/A   Clear
12:56 PM 61.5 °F - 44.2 °F 53% 30.00 in 10.0 mi SSE 5.8 mph - N/A   Clear
1:56 PM 63.7 °F - 43.7 °F 48% 29.96 in 10.0 mi SE 6.9 mph - N/A   Clear
2:56 PM 65.5 °F - 44.1 °F 46% 29.93 in 10.0 mi SE 8.1 mph - N/A   Clear
3:56 PM 66.9 °F - 43.7 °F 43% 29.91 in 10.0 mi SE 10.4 mph - N/A   Clear
4:56 PM 66.2 °F - 43.0 °F 43% 29.90 in 10.0 mi SSE 9.2 mph - N/A   Clear
6:56 PM 58.6 °F - 46.0 °F 63% 29.88 in 10.0 mi SE 5.8 mph - N/A   Partly Cloudy
8:56 PM 54.1 °F - 47.5 °F 78% 29.88 in 10.0 mi SE 6.9 mph - N/A   Partly Cloudy
9:56 PM 52.0 °F - 48.2 °F 87% 29.88 in 10.0 mi SE 5.8 mph - N/A   Partly Cloudy
10:56 PM 51.4 °F - 49.1 °F 92% 29.88 in 10.0 mi SE 5.8 mph - N/A   Scattered Clouds
11:56 PM 52.2 °F - 49.6 °F 91% 29.87 in 10.0 mi SSE 8.1 mph - N/A   Scattered Clouds